Theta_e
338 336 333 331 330 329 325 321 320 319 318 319 319 318 318 317 318 319 318 318 319 319 319 319 319 319 318 315 316 316 315 317 317 316 317 317 317 317 316 315 314 315
337 335 332 330 330 326 322 318 318 318 318 319 319 317 317 317 318 319 319 319 319 318 318 317 316 317 316 314 315 315 315 317 317 315 316 317 316 316 315 315 314 313
336 334 331 330 327 323 320 317 315 317 319 319 319 319 319 319 319 319 320 320 319 318 318 317 315 314 313 314 315 314 313 315 315 315 316 316 316 316 315 315 314 313
335 331 329 327 323 321 320 316 314 317 319 319 319 319 319 319 319 319 319 319 319 318 317 316 315 314 312 314 316 316 314 313 313 314 317 316 316 316 315 315 315 313
332 329 328 324 321 319 319 316 316 318 319 318 319 318 318 319 320 319 319 319 319 318 318 317 316 315 313 314 315 315 315 314 313 316 317 317 317 316 316 316 316 314
330 329 326 321 319 319 318 317 318 318 318 319 320 319 318 319 320 320 320 320 319 318 318 317 317 317 316 314 314 314 314 314 315 317 317 317 317 317 317 317 316 315
330 328 322 318 318 319 318 317 318 318 319 319 319 318 317 317 318 319 320 319 319 318 318 317 317 318 318 317 316 316 315 315 316 317 317 318 318 318 318 317 317 316
328 324 318 318 319 318 318 318 318 319 320 319 317 316 317 318 318 319 320 319 318 317 317 317 317 318 318 318 318 317 316 315 316 317 317 317 318 318 318 317 317 316
325 319 317 319 319 318 318 319 319 320 320 320 319 318 319 320 320 319 320 319 317 317 317 316 316 317 318 318 319 318 318 317 317 317 317 317 317 317 317 318 317 317
321 318 318 320 319 318 319 319 319 320 319 319 320 320 320 320 319 319 320 320 320 319 318 315 316 318 318 318 318 318 318 318 318 318 317 317 317 317 317 318 318 316
319 319 320 319 319 319 319 320 320 319 319 319 320 320 320 320 320 320 321 321 321 321 320 318 318 318 319 319 319 318 318 319 318 318 318 317 317 317 317 318 317 316
320 320 319 318 318 319 319 320 320 319 319 319 320 320 320 320 321 321 321 321 321 321 321 320 320 319 319 319 319 319 319 318 318 318 318 317 317 317 317 317 317 316
320 320 318 317 318 319 319 320 320 320 320 320 320 321 320 320 320 320 320 321 321 321 321 320 320 320 320 320 320 320 319 319 319 318 318 318 317 318 318 317 317 316
320 319 318 318 318 319 319 319 320 320 320 320 320 321 320 320 320 320 320 321 321 322 321 320 320 321 321 321 321 321 320 320 320 319 319 319 318 317 318 317 317 316
320 319 319 318 318 319 319 320 320 320 320 320 320 321 321 321 321 320 320 321 322 322 322 321 321 322 321 320 321 322 322 321 321 320 320 320 319 318 318 318 317 316
319 319 319 318 318 319 320 320 320 320 320 320 320 321 321 321 321 321 321 322 322 322 322 322 322 321 320 319 319 320 322 323 322 321 320 320 319 318 318 318 317 316
316 318 319 318 318 319 320 320 320 319 320 320 320 321 320 320 321 322 322 322 322 322 322 321 321 321 320 319 319 319 320 323 322 321 320 319 319 319 318 318 318 316
315 318 319 319 319 319 320 319 319 320 320 320 320 320 319 320 321 321 321 321 321 322 322 322 322 321 320 319 320 320 319 321 322 321 321 320 319 319 319 318 317 317
315 317 318 319 319 319 319 319 319 320 320 320 321 321 321 321 321 321 320 319 319 320 321 322 322 322 321 319 320 320 319 320 322 321 321 320 319 319 319 318 316 316
316 317 318 319 320 318 319 319 319 319 320 320 321 321 322 322 321 322 321 319 319 320 321 322 323 322 320 319 319 320 319 320 322 321 321 321 320 318 318 316 314 315
319 319 318 320 320 318 318 318 318 319 320 320 320 321 322 322 322 322 322 320 320 320 320 322 323 321 319 318 319 319 319 320 322 321 320 320 320 319 316 314 312 314
321 321 319 319 319 318 318 318 318 319 319 320 321 321 322 322 322 322 321 320 319 318 318 321 322 321 318 318 318 318 318 321 322 321 320 319 320 319 316 313 312 313
321 321 320 319 319 318 318 318 318 319 319 320 320 321 321 322 322 322 321 319 318 318 318 320 321 322 320 318 317 317 318 320 321 321 321 320 319 319 317 315 313 313
320 321 321 321 319 319 318 318 318 319 319 320 320 321 321 322 322 322 321 319 318 318 319 319 320 321 320 318 318 317 316 318 320 321 321 320 319 319 318 316 314 313
320 320 321 322 320 319 318 318 318 318 319 320 320 321 322 322 322 322 321 320 320 319 319 319 320 321 320 318 318 317 315 315 318 321 320 319 319 319 319 318 317 315
320 319 320 322 321 320 319 318 318 319 319 320 320 321 321 322 322 322 322 322 321 320 320 320 321 321 319 318 317 317 315 313 317 321 320 318 319 319 318 319 319 318
Wind_Speed
13 13 12 8 7 6 4 4 4 4 4 5 5 5 6 7 8 7 6 7 7 6 7 7 7 7 7 10 10 10 10 10 10 10 10 10 10 11 12 12 12 11
15 15 12 9 7 5 3 5 5 4 5 6 6 6 7 7 7 6 5 6 6 7 8 8 10 9 8 9 10 9 10 10 9 9 10 10 10 11 11 11 12 12
15 14 10 8 6 4 5 5 5 5 7 8 7 6 6 6 7 6 5 6 6 7 8 9 11 12 11 11 11 10 11 10 9 9 10 10 10 11 12 12 13 13
14 12 10 8 7 8 8 6 5 8 9 9 8 8 8 7 6 6 6 6 6 7 8 10 12 13 14 13 10 10 11 11 12 12 10 10 11 11 12 13 14 14
15 13 11 9 8 9 9 7 8 10 10 9 9 8 9 8 6 4 5 6 6 7 8 9 11 13 14 13 10 9 9 10 12 12 11 11 11 11 12 14 14 15
16 13 12 10 10 10 9 9 10 11 11 10 9 8 8 7 6 5 5 5 5 6 6 7 8 9 12 12 11 10 10 10 12 12 11 11 12 12 12 13 15 16
14 13 12 11 11 11 11 11 11 11 10 10 10 10 9 8 7 7 6 5 5 6 6 7 8 8 8 9 9 9 9 9 11 11 10 11 12 12 12 14 15 16
14 13 12 13 14 13 12 12 12 12 11 11 11 12 11 9 7 7 6 6 6 7 6 6 8 8 7 6 7 7 7 7 8 9 9 10 11 12 13 14 15 15
14 13 13 15 15 15 14 13 12 13 12 12 12 11 10 8 7 8 8 8 8 8 8 7 8 7 6 6 6 6 6 6 7 8 8 9 10 11 12 13 15 15
13 13 15 16 15 15 15 13 13 12 12 12 12 10 9 8 9 9 8 8 8 7 8 8 8 7 5 5 5 5 5 6 7 8 8 8 9 10 11 12 14 15
14 15 17 17 16 16 15 14 12 11 11 11 10 9 8 8 7 7 6 5 5 5 5 7 7 7 5 5 4 5 5 6 7 8 9 9 9 9 10 11 13 14
16 17 18 17 16 16 15 13 11 11 10 9 8 8 7 5 4 4 4 3 4 4 3 5 5 5 5 6 5 5 6 7 7 8 9 9 9 9 9 10 11 12
16 16 17 16 16 15 14 12 11 10 10 8 7 7 6 4 3 3 2 2 2 3 2 3 4 4 5 6 5 6 6 6 6 7 8 8 9 9 8 9 10 11
15 15 16 16 16 15 14 12 10 10 10 8 7 6 5 5 4 3 2 2 1 1 0 3 4 4 4 4 4 5 5 5 5 7 7 7 9 9 8 9 9 9
16 15 16 16 16 16 14 12 10 10 10 9 7 6 6 5 5 4 3 3 2 1 1 3 4 3 3 3 3 4 5 5 6 7 7 7 8 9 9 8 8 8
16 15 15 15 15 15 14 12 10 10 10 9 7 6 6 5 5 5 4 3 2 1 2 3 2 3 6 5 4 4 5 5 6 7 8 8 8 9 9 7 7 8
15 16 15 15 15 14 13 12 11 10 10 9 7 7 7 6 6 5 5 4 3 1 1 1 2 5 7 6 6 6 6 5 6 7 8 8 8 8 8 6 7 8
15 16 16 15 15 14 13 12 11 10 9 9 8 7 6 6 6 6 5 5 4 3 2 0 3 8 9 7 7 7 7 6 6 6 6 7 7 7 7 6 6 6
15 15 16 16 15 14 13 12 11 11 10 9 8 7 7 6 6 5 5 5 4 4 3 1 3 9 9 7 7 8 7 6 6 6 6 6 7 6 6 6 6 6
14 15 15 16 15 14 13 12 12 11 9 9 8 7 7 6 6 6 5 5 5 4 3 2 4 8 8 7 8 7 7 7 6 6 6 6 7 6 6 7 8 6
13 14 15 15 15 14 14 13 13 11 10 9 9 8 7 7 7 6 6 6 5 5 4 3 5 7 7 8 8 7 8 7 6 6 5 5 6 6 6 8 9 7
13 13 13 14 15 14 14 14 13 12 11 10 9 8 8 8 7 6 6 6 5 5 5 4 6 7 7 8 9 8 8 7 6 7 6 4 5 6 6 8 9 8
12 13 12 12 14 14 14 14 14 13 12 11 10 9 8 8 8 7 7 7 6 6 6 5 6 7 8 9 9 8 7 7 7 6 5 4 5 5 6 6 7 8
12 12 12 11 12 13 14 13 13 13 13 12 11 10 9 9 8 7 7 7 7 7 6 6 7 7 8 9 9 8 6 6 6 5 5 5 5 5 6 6 6 7
11 11 12 11 11 13 13 12 13 13 13 13 12 10 10 9 7 7 7 7 8 7 6 7 7 8 8 9 9 8 5 5 6 5 5 5 5 6 6 7 7 8
11 11 12 10 10 12 13 13 13 14 13 13 12 10 10 9 8 8 8 8 8 8 7 7 8 9 9 9 9 8 5 5 5 5 5 6 5 6 7 7 8 9
Wind_Direction
186 198 200 197 206 220 217 186 165 164 160 148 146 147 140 129 116 102 90 80 69 65 65 59 62 61 45 48 52 49 50 49 40 39 43 43 40 36 33 29 25 21
193 200 198 200 219 232 207 176 169 168 159 150 153 145 126 116 109 103 90 78 70 69 68 63 64 65 57 56 55 49 53 52 41 40 43 41 39 34 30 26 20 15
195 199 198 207 215 185 170 182 175 160 154 149 144 132 121 117 113 112 105 94 86 76 72 67 62 60 60 62 60 53 53 53 50 50 45 41 40 34 28 24 17 14
193 192 190 196 186 164 170 181 166 158 158 150 145 140 133 124 115 110 105 103 97 82 73 68 62 59 61 66 65 55 48 49 55 55 47 38 36 33 26 23 18 16
190 188 190 193 179 168 170 164 160 163 159 150 146 141 132 123 119 119 108 99 92 80 70 65 60 57 61 67 73 68 57 52 53 52 47 41 36 30 24 21 20 19
189 194 199 193 173 163 160 158 161 160 151 148 147 139 130 127 133 140 125 108 100 92 85 79 73 62 60 65 71 76 69 56 54 52 47 42 37 30 24 19 19 20
192 200 197 177 160 155 155 156 158 154 148 150 148 137 127 124 126 127 121 112 108 104 94 86 82 72 59 56 59 64 60 47 45 46 41 36 32 27 23 20 19 19
195 196 181 162 155 154 151 151 151 148 143 141 136 126 118 115 116 116 116 113 107 102 96 82 77 77 71 64 61 59 58 45 35 36 34 30 26 22 19 18 18 18
193 186 167 158 156 152 146 146 149 145 139 136 129 120 117 119 118 117 116 109 98 93 90 80 74 75 68 62 60 54 51 43 30 28 26 23 22 17 14 14 15 16
186 173 162 160 159 154 148 148 150 145 142 139 131 124 123 122 117 113 108 100 91 84 81 76 73 73 62 50 47 40 37 30 21 22 17 12 13 11 9 9 10 12
175 167 164 164 162 158 155 154 153 149 146 140 133 131 130 124 116 107 100 99 99 90 79 73 69 67 67 59 39 27 28 22 15 15 11 5 3 2 6 8 6 7
171 169 169 168 166 163 161 161 161 158 154 149 145 143 137 133 130 117 110 114 110 102 86 72 66 62 61 58 40 24 22 19 16 14 10 5 358 354 0 5 5 6
171 174 174 170 167 167 166 165 167 168 163 162 162 154 150 158 162 146 144 149 125 119 105 65 63 54 44 40 31 23 20 14 13 14 10 6 1 354 352 359 5 6
172 174 173 170 167 168 169 167 171 173 170 174 175 168 172 186 194 195 191 195 178 149 99 28 41 39 28 22 9 7 9 8 12 11 3 2 4 357 347 352 5 4
170 170 171 170 169 170 171 171 175 177 176 184 184 180 191 201 201 205 207 218 232 228 359 16 31 10 336 353 3 349 344 355 6 2 354 359 3 356 346 348 360 358
170 169 171 173 172 172 173 174 178 180 183 191 191 193 206 207 200 198 199 222 247 281 344 8 23 306 308 335 3 354 339 344 358 356 352 356 355 352 348 344 350 351
174 172 173 174 172 173 175 177 181 186 190 195 198 204 211 204 200 200 195 208 226 218 253 341 310 283 303 331 345 349 343 335 346 352 348 348 346 346 347 341 342 348
174 176 176 176 173 174 177 180 185 189 192 197 200 208 212 206 211 213 200 204 212 207 206 185 288 286 302 327 329 332 339 331 330 335 335 338 340 340 343 341 339 347
175 179 180 178 176 177 180 183 188 191 194 198 200 209 214 212 222 229 223 222 224 233 236 196 271 283 296 317 316 319 330 326 316 317 323 330 335 338 338 336 339 350
175 180 181 180 180 183 185 189 193 194 197 201 204 215 222 219 227 239 249 249 239 248 264 276 285 286 295 309 308 311 321 318 308 314 322 321 325 333 335 341 352 357
173 178 181 184 187 189 192 194 196 197 200 203 207 219 229 233 234 241 254 258 249 253 263 276 288 291 300 308 305 306 314 312 305 310 314 310 312 319 331 349 1 2
169 175 181 190 194 195 197 198 199 202 204 207 211 217 230 246 252 253 258 261 261 266 268 277 293 298 304 306 304 306 309 307 305 309 314 314 304 304 325 349 1 3
164 175 181 191 196 197 198 201 204 207 208 211 216 218 229 248 259 259 258 259 263 267 268 277 295 304 307 306 304 306 304 301 303 308 309 304 292 291 309 335 350 358
161 177 183 190 195 196 199 204 208 209 210 214 218 223 232 241 249 256 257 256 259 262 271 286 299 305 308 310 307 305 299 294 299 306 300 291 284 281 290 310 333 347
164 178 186 193 199 200 203 208 210 208 210 217 219 226 239 243 244 252 255 255 258 263 275 292 301 306 311 314 310 301 289 284 294 299 289 280 276 277 281 292 308 323
176 183 191 197 204 206 208 211 211 209 211 219 222 227 238 243 240 244 250 255 263 270 280 290 299 305 312 315 307 294 274 271 284 285 277 274 269 271 279 285 294 304